Regional Weather Roundup
Issued by NWS

Home | Current Version | Previous Version | Text Only | Print | Product List | Glossary On
Versions: 1 2 3 4 5 6 7 8 9 10 11 12 13 14 15 16 17 18 19 20 21 22 23 24 25 26 27 28 29 30 31 32 33 34 35 36 37 38 39 40 41 42 43 44 45 46 47 48 49 50
000
ASUS43 KBIS 262202
RWRND

NORTH DAKOTA REGIONAL WEATHER ROUNDUP
NATIONAL WEATHER SERVICE BISMARCK ND
500 PM CDT MON JUN 26 2017

NOTE: "FAIR" INDICATES FEW OR NO CLOUDS BELOW 12,000 FEET WITH NO
SIGNIFICANT WEATHER AND/OR OBSTRUCTIONS TO VISIBILITY.


NDZ001>003-009>011-017-262300-
NORTHWEST NORTH DAKOTA

CITY           SKY/WX    TMP DP  RH WIND       PRES   REMARKS
WILLISTON      SUNNY     83  40  21 SE14      30.01F
MINOT          SUNNY     76  39  26 S10       30.07F
MINOT AFB      SUNNY     74  40  28 S8        30.06F
$$

NDZ018>021-031>035-040>046-262300-
SOUTHWEST NORTH DAKOTA

CITY           SKY/WX    TMP DP  RH WIND       PRES   REMARKS
BISMARCK       SUNNY     77  43  29 S7        30.11F
DICKINSON      SUNNY     77  26  15 S8G16     30.05F
GARRISON         N/A     74  40  29 S8        30.07F
HETTINGER ARPT SUNNY     79  36  21 S8G21     30.10F
$$

NDZ004>008-012>016-024-026-027-054-262300-
NORTHEAST NORTH DAKOTA

CITY           SKY/WX    TMP DP  RH WIND       PRES   REMARKS
GRAND FORKS    MOSUNNY   75  40  28 W6        30.10F
GRND FRKS AFB  MOSUNNY   73  40  30 W7G16     30.12F
DEVILS LAKE    SUNNY     69  38  32 S8        30.14F
$$

NDZ022-023-025-028>030-036>039-047>053-262300-
SOUTHEAST NORTH DAKOTA

CITY           SKY/WX    TMP DP  RH WIND       PRES   REMARKS
FARGO          SUNNY     75  38  26 W13       30.12F
JAMESTOWN      SUNNY     70  38  31 W7        30.14F
$$




USA.gov is the U.S. government's official web portal to all federal, state and local government web resources and services.